BAW71 EGKK-EHRD

Flight info

Callsign BAW71
Flight time 0h 35m
Altitude 23000
Route FRANE M604 GASBA M197 REDFA
Aircraft A321/M-SDE3FGHIRWY/LB1

Departure

Time 2026-05-06 13:24
Airport London Gatwick Airport (EGKK)

Arrival

Time 2026-05-06 14:00
Airport Rotterdam The Hague Airport (EHRD)
Time Latitude Longitude Altitude Speed Heading
2026-05-06 12:48 51.15512 -0.16717 213 ft 0 kts 348°
2026-05-06 13:13 51.15493 -0.16711 216 ft 4 kts 349°
2026-05-06 13:13 51.15467 -0.16703 210 ft 4 kts 342°
2026-05-06 13:14 51.15447 -0.16685 215 ft 4 kts 288°
2026-05-06 13:14 51.15445 -0.16676 207 ft 2 kts 272°
2026-05-06 13:16 51.15445 -0.16682 208 ft 1 kts 272°
2026-05-06 13:16 51.15446 -0.16706 205 ft 3 kts 272°
2026-05-06 13:16 51.15449 -0.16747 207 ft 4 kts 280°
2026-05-06 13:17 51.15451 -0.16804 211 ft 6 kts 264°
2026-05-06 13:17 51.15441 -0.16875 208 ft 7 kts 256°
2026-05-06 13:17 51.15429 -0.16961 207 ft 9 kts 258°
2026-05-06 13:17 51.15416 -0.17061 213 ft 10 kts 258°
2026-05-06 13:18 51.15393 -0.17172 208 ft 11 kts 246°
2026-05-06 13:18 51.15359 -0.17293 210 ft 12 kts 244°
2026-05-06 13:18 51.15312 -0.17414 210 ft 14 kts 242°
2026-05-06 13:18 51.15285 -0.17563 207 ft 15 kts 258°
2026-05-06 13:19 51.15262 -0.17726 206 ft 16 kts 257°
2026-05-06 13:19 51.15237 -0.17898 207 ft 17 kts 258°
2026-05-06 13:19 51.15213 -0.18085 207 ft 18 kts 257°
2026-05-06 13:19 51.15188 -0.18285 213 ft 19 kts 261°
2026-05-06 13:20 51.15161 -0.18496 208 ft 20 kts 257°
2026-05-06 13:20 51.15132 -0.18718 203 ft 21 kts 258°
2026-05-06 13:20 51.15100 -0.18951 210 ft 22 kts 257°
2026-05-06 13:20 51.15066 -0.19189 206 ft 22 kts 258°
2026-05-06 13:21 51.15031 -0.19434 206 ft 23 kts 256°
2026-05-06 13:21 51.15000 -0.19687 209 ft 24 kts 257°
2026-05-06 13:21 51.14963 -0.19948 204 ft 25 kts 257°
2026-05-06 13:21 51.14925 -0.20222 213 ft 26 kts 258°
2026-05-06 13:22 51.14886 -0.20504 203 ft 26 kts 257°
2026-05-06 13:22 51.14847 -0.20793 203 ft 27 kts 257°
2026-05-06 13:22 51.14806 -0.21083 210 ft 27 kts 255°
2026-05-06 13:22 51.14722 -0.21308 208 ft 21 kts 208°
2026-05-06 13:23 51.14614 -0.21325 204 ft 11 kts 168°
2026-05-06 13:23 51.14539 -0.21265 208 ft 13 kts 134°
2026-05-06 13:23 51.14528 -0.21107 211 ft 24 kts 77°
2026-05-06 13:23 51.14621 -0.20439 208 ft 98 kts 77°
2026-05-06 13:24 51.14809 -0.19074 211 ft 155 kts 78°
2026-05-06 13:24 51.15037 -0.17289 689 ft 167 kts 74°
2026-05-06 13:24 51.15288 -0.15445 1469 ft 168 kts 73°
2026-05-06 13:24 51.15551 -0.13650 2130 ft 171 kts 71°
2026-05-06 13:25 51.15841 -0.11695 2439 ft 193 kts 73°
2026-05-06 13:25 51.16136 -0.09608 2702 ft 212 kts 74°
2026-05-06 13:25 51.16476 -0.07155 2749 ft 244 kts 74°
2026-05-06 13:25 51.16843 -0.04417 3266 ft 257 kts 77°
2026-05-06 13:26 51.16886 -0.01547 4094 ft 262 kts 90°
2026-05-06 13:26 51.16784 0.01370 4920 ft 265 kts 90°
2026-05-06 13:26 51.16715 0.04323 5705 ft 270 kts 88°
2026-05-06 13:26 51.16663 0.07325 6499 ft 272 kts 88°
2026-05-06 13:27 51.16614 0.10363 7233 ft 276 kts 89°
2026-05-06 13:27 51.16566 0.13445 7963 ft 280 kts 88°
2026-05-06 13:27 51.16525 0.16401 8637 ft 284 kts 88°
2026-05-06 13:27 51.16519 0.19570 9341 ft 288 kts 87°
2026-05-06 13:28 51.16533 0.22785 10020 ft 292 kts 88°
2026-05-06 13:28 51.16552 0.26038 10637 ft 297 kts 87°
2026-05-06 13:28 51.16876 0.29376 10814 ft 315 kts 70°
2026-05-06 13:28 51.17580 0.32797 10944 ft 335 kts 70°
2026-05-06 13:29 51.18336 0.36395 11317 ft 346 kts 69°
2026-05-06 13:29 51.19110 0.40063 11875 ft 351 kts 69°
2026-05-06 13:29 51.19886 0.43774 12478 ft 355 kts 69°
2026-05-06 13:29 51.20666 0.47536 13059 ft 359 kts 69°
2026-05-06 13:30 51.21450 0.51342 13684 ft 363 kts 70°
2026-05-06 13:30 51.22237 0.55189 14215 ft 367 kts 71°
2026-05-06 13:30 51.23030 0.59088 14721 ft 371 kts 70°
2026-05-06 13:30 51.23830 0.63013 15253 ft 374 kts 71°
2026-05-06 13:31 51.24639 0.66984 15765 ft 378 kts 71°
2026-05-06 13:31 51.25454 0.70990 16301 ft 380 kts 71°
2026-05-06 13:31 51.26275 0.75022 16825 ft 384 kts 71°
2026-05-06 13:31 51.27102 0.79097 17328 ft 388 kts 71°
2026-05-06 13:32 51.27932 0.83204 17866 ft 390 kts 71°
2026-05-06 13:32 51.28486 0.85944 18174 ft 393 kts 71°
2026-05-06 13:32 51.29329 0.90120 18644 ft 396 kts 71°
2026-05-06 13:32 51.30174 0.94319 19082 ft 399 kts 71°
2026-05-06 13:33 51.31025 0.98554 19491 ft 402 kts 72°
2026-05-06 13:33 51.31878 1.02818 19963 ft 404 kts 72°
2026-05-06 13:33 51.32737 1.07122 20376 ft 408 kts 72°
2026-05-06 13:33 51.33598 1.11447 20847 ft 409 kts 72°
2026-05-06 13:34 51.34465 1.15801 21265 ft 412 kts 72°
2026-05-06 13:34 51.35335 1.20186 21696 ft 415 kts 72°
2026-05-06 13:34 51.36211 1.24598 22111 ft 418 kts 72°
2026-05-06 13:34 51.37090 1.29041 22524 ft 420 kts 72°
2026-05-06 13:35 51.37973 1.33522 22880 ft 424 kts 73°
2026-05-06 13:35 51.38854 1.38011 22956 ft 420 kts 73°
2026-05-06 13:35 51.39725 1.42461 22961 ft 418 kts 73°
2026-05-06 13:35 51.40591 1.46891 22961 ft 417 kts 73°
2026-05-06 13:36 51.41455 1.51324 22958 ft 417 kts 73°
2026-05-06 13:36 51.42319 1.55750 22958 ft 416 kts 73°
2026-05-06 13:36 51.43184 1.60182 22957 ft 416 kts 73°
2026-05-06 13:36 51.44045 1.64609 22957 ft 416 kts 73°
2026-05-06 13:37 51.44903 1.69041 22960 ft 416 kts 73°
2026-05-06 13:37 51.45758 1.73475 22956 ft 416 kts 73°
2026-05-06 13:37 51.46613 1.77909 22958 ft 416 kts 73°
2026-05-06 13:37 51.47456 1.82286 22958 ft 416 kts 73°
2026-05-06 13:38 51.48306 1.86726 22959 ft 416 kts 73°
2026-05-06 13:38 51.49155 1.91165 22957 ft 416 kts 73°
2026-05-06 13:38 51.50001 1.95600 22952 ft 416 kts 73°
2026-05-06 13:38 51.50855 2.00078 22800 ft 409 kts 73°
2026-05-06 13:39 51.51663 2.04328 22531 ft 398 kts 73°
2026-05-06 13:39 51.52460 2.08535 22258 ft 390 kts 73°
2026-05-06 13:39 51.53243 2.12679 21984 ft 387 kts 73°
2026-05-06 13:39 51.54025 2.16814 21724 ft 386 kts 73°
2026-05-06 13:40 51.54801 2.20912 21455 ft 380 kts 73°
2026-05-06 13:40 51.55561 2.24941 21047 ft 374 kts 73°
2026-05-06 13:40 51.56305 2.28922 20594 ft 370 kts 73°
2026-05-06 13:40 51.57040 2.32863 20153 ft 366 kts 73°
2026-05-06 13:41 51.57766 2.36767 19705 ft 363 kts 73°
2026-05-06 13:41 51.58487 2.40641 19276 ft 360 kts 73°
2026-05-06 13:41 51.59201 2.44475 18831 ft 357 kts 72°
2026-05-06 13:41 51.59906 2.48281 18396 ft 353 kts 72°
2026-05-06 13:42 51.60606 2.52051 17928 ft 350 kts 72°
2026-05-06 13:42 51.61296 2.55781 17500 ft 345 kts 73°
2026-05-06 13:42 51.61974 2.59454 17096 ft 340 kts 72°
2026-05-06 13:42 51.62643 2.63085 16677 ft 336 kts 73°
2026-05-06 13:43 51.63302 2.66665 16261 ft 332 kts 73°
2026-05-06 13:43 51.63955 2.70223 15851 ft 329 kts 72°
2026-05-06 13:43 51.64601 2.73748 15436 ft 327 kts 72°
2026-05-06 13:43 51.65239 2.77250 15029 ft 324 kts 72°
2026-05-06 13:44 51.65872 2.80726 14632 ft 323 kts 72°
2026-05-06 13:44 51.66502 2.84190 14223 ft 322 kts 72°
2026-05-06 13:44 51.67126 2.87634 13816 ft 320 kts 72°
2026-05-06 13:44 51.67748 2.91063 13389 ft 318 kts 71°
2026-05-06 13:45 51.68364 2.94468 12985 ft 315 kts 72°
2026-05-06 13:45 51.69575 3.01181 12210 ft 310 kts 72°
2026-05-06 13:45 51.70173 3.04500 11823 ft 307 kts 71°
2026-05-06 13:46 51.70763 3.07782 11445 ft 304 kts 71°
2026-05-06 13:46 51.71346 3.11041 11061 ft 301 kts 73°
2026-05-06 13:46 51.71924 3.14269 10688 ft 298 kts 72°
2026-05-06 13:46 51.72493 3.17463 10323 ft 295 kts 71°
2026-05-06 13:47 51.73053 3.20606 10151 ft 289 kts 72°
2026-05-06 13:47 51.73612 3.23739 10048 ft 291 kts 72°
2026-05-06 13:47 51.74169 3.26874 9919 ft 291 kts 71°
2026-05-06 13:47 51.74731 3.30029 9432 ft 293 kts 72°
2026-05-06 13:48 51.75235 3.33177 9164 ft 286 kts 75°
2026-05-06 13:48 51.75664 3.36296 9033 ft 285 kts 76°
2026-05-06 13:48 51.76066 3.39427 8904 ft 285 kts 77°
2026-05-06 13:48 51.76458 3.42555 8775 ft 284 kts 77°
2026-05-06 13:49 51.76852 3.45674 8645 ft 283 kts 77°
2026-05-06 13:49 51.77250 3.48784 8512 ft 282 kts 77°
2026-05-06 13:49 51.77648 3.51879 8374 ft 281 kts 77°
2026-05-06 13:49 51.78049 3.54969 8241 ft 280 kts 77°
2026-05-06 13:50 51.78449 3.58047 8114 ft 279 kts 76°
2026-05-06 13:50 51.78849 3.61112 7984 ft 279 kts 76°
2026-05-06 13:50 51.79242 3.64132 7857 ft 278 kts 75°
2026-05-06 13:50 51.79642 3.67229 7706 ft 277 kts 76°
2026-05-06 13:51 51.80035 3.70269 7588 ft 277 kts 75°
2026-05-06 13:51 51.80422 3.73273 7470 ft 276 kts 75°
2026-05-06 13:51 51.80810 3.76304 7337 ft 275 kts 76°
2026-05-06 13:51 51.81194 3.79320 7215 ft 274 kts 76°
2026-05-06 13:52 51.81578 3.82339 6970 ft 275 kts 77°
2026-05-06 13:52 51.81963 3.85353 6575 ft 273 kts 75°
2026-05-06 13:52 51.82347 3.88344 6161 ft 272 kts 75°
2026-05-06 13:52 51.82730 3.91341 5723 ft 273 kts 76°
2026-05-06 13:53 51.83107 3.94317 5359 ft 269 kts 76°
2026-05-06 13:53 51.83478 3.97268 4931 ft 265 kts 76°
2026-05-06 13:53 51.83842 4.00154 4427 ft 259 kts 76°
2026-05-06 13:53 51.84200 4.02995 4071 ft 257 kts 76°
2026-05-06 13:54 51.84558 4.05820 3698 ft 255 kts 75°
2026-05-06 13:54 51.84903 4.08570 3517 ft 240 kts 76°
2026-05-06 13:54 51.85213 4.11085 3450 ft 215 kts 76°
2026-05-06 13:54 51.85485 4.13307 3379 ft 189 kts 75°
2026-05-06 13:55 51.85737 4.15335 3297 ft 181 kts 75°
2026-05-06 13:55 51.85987 4.17335 3225 ft 181 kts 75°
2026-05-06 13:55 51.86238 4.19332 3141 ft 181 kts 75°
2026-05-06 13:55 51.86626 4.21240 3076 ft 177 kts 59°
2026-05-06 13:56 51.87253 4.22952 2928 ft 176 kts 56°
2026-05-06 13:56 51.87911 4.24625 2704 ft 176 kts 54°
2026-05-06 13:56 51.88577 4.26294 2467 ft 178 kts 55°
2026-05-06 13:56 51.89247 4.27962 2222 ft 176 kts 55°
2026-05-06 13:57 51.89913 4.29618 1983 ft 175 kts 54°
2026-05-06 13:57 51.90542 4.31187 1756 ft 156 kts 53°
2026-05-06 13:57 51.91107 4.32593 1553 ft 145 kts 55°
2026-05-06 13:57 51.91646 4.33935 1359 ft 140 kts 53°
2026-05-06 13:58 51.92164 4.35247 1189 ft 136 kts 53°
2026-05-06 13:58 51.92689 4.36527 967 ft 135 kts 52°
2026-05-06 13:58 51.93218 4.37796 792 ft 136 kts 56°
2026-05-06 13:58 51.93721 4.39081 637 ft 137 kts 56°
2026-05-06 13:59 51.94234 4.40378 421 ft 137 kts 55°
2026-05-06 13:59 51.94742 4.41677 244 ft 134 kts 57°
2026-05-06 13:59 51.95257 4.42952 50 ft 136 kts 57°
2026-05-06 13:59 51.95734 4.44160 0 ft 109 kts 56°
2026-05-06 14:00 51.95908 4.44633 -1 ft 22 kts 94°
2026-05-06 14:00 51.95812 4.44760 1 ft 16 kts 181°
2026-05-06 14:00 51.95732 4.44635 1 ft 17 kts 239°